Weather History for Istanbul, Turkey

Change the Weather History Date:

Sunday, May 1, 2011

  Actual Average Record
Temperature  
Mean Temperature 60 °F -  
Max Temperature 71 °F 69 °F 78 °F (1999)
Min Temperature 48 °F 54 °F 48 °F (1997)
Degree Days  
Heating Degree Days 6    
Growing Degree Days 10 (Base 50)    
Moisture  
Dew Point 50 °F    
Average Humidity 74    
Maximum Humidity 100    
Minimum Humidity 40    
Precipitation  
Precipitation 0.02 in - - ()
Sea Level Pressure  
Sea Level Pressure 29.80 in    
Wind  
Wind Speed 6 mph ()    
Max Wind Speed 12 mph    
Max Gust Speed -    
Visibility 4.7 miles    
Events Rain    
Averages and records for this station are not official NWS values.
T = Trace of Precipitation, MM = Missing Value Source: Averaged Metar Reports

Daily Weather History Graph

Daily Weather History Graph

Search for Another Location

Airport:

Trip Planner

Search our weather history database for the weather conditions in past years. The results will help you decide how hot, cold, wet, or windy it might be!

Date:

Astronomy

May. 01, 2011 Rise Set
Actual Time 6:03 AM EEST 8:00 PM EEST
Civil Twilight 5:33 AM EEST 8:30 PM EEST
Nautical Twilight 4:57 AM EEST 9:07 PM EEST
Astronomical Twilight 4:18 AM EEST 9:46 PM EEST
Moon 4:43 AM EEST (5/1) 6:30 PM EEST (5/1)
Length of Visible Light 14h 56m
Length of Day
13h 57m
Waning Crescent, 3% of the Moon is Illuminated
May 1
Waning Crescent
May 3
New
May 10
First Quarter
May 17
Full
May 24
Last Quarter

Hourly Weather History & Observations

Time (EEST) Temp. Dew Point Humidity Pressure Visibility Wind Dir Wind Speed Gust Speed Precip Events Conditions
12:20 AM 51.8 °F 50.0 °F 94% 29.86 in - Variable 6.9 mph - N/A   Clear
12:50 AM 51.8 °F 50.0 °F 94% 29.83 in 3.7 mi NNW 10.4 mph - N/A   Unknown
1:20 AM 50.0 °F 48.2 °F 94% 29.83 in 3.7 mi NNW 11.5 mph - N/A   Unknown
1:50 AM 50.0 °F 48.2 °F 94% 29.83 in 3.7 mi NNW 10.4 mph - N/A   Unknown
2:20 AM 50.0 °F 48.2 °F 94% 29.83 in 3.7 mi NNW 10.4 mph - N/A   Unknown
2:50 AM 48.2 °F 48.2 °F 100% 29.83 in 1.9 mi NNW 10.4 mph - N/A   Mist
3:00 AM 49 °F 49 °F 98% 29.84 in 2 mi NNW 10.4 mph - -   Mist
4:50 AM 50.0 °F 48.2 °F 94% 29.83 in 3.7 mi NNW 6.9 mph - N/A   Unknown
5:20 AM 50.0 °F 48.2 °F 94% 29.83 in 3.7 mi NNW 6.9 mph - N/A   Unknown
5:50 AM 48.2 °F 48.2 °F 100% 29.83 in 3.7 mi North 4.6 mph - N/A   Unknown
6:20 AM 48.2 °F 48.2 °F 100% 29.83 in - North 6.9 mph - N/A   Clear
6:50 AM 50.0 °F 50.0 °F 100% 29.83 in 4.3 mi North 3.5 mph - N/A   Unknown
7:20 AM 51.8 °F 50.0 °F 94% 29.83 in 3.7 mi NNW 5.8 mph - N/A   Unknown
7:50 AM 51.8 °F 51.8 °F 100% 29.83 in 4.3 mi NNW 6.9 mph - N/A   Unknown
8:20 AM 55.4 °F 53.6 °F 94% 29.83 in 4.3 mi North 3.5 mph - N/A   Unknown
8:50 AM 57.2 °F 51.8 °F 82% 29.83 in 4.3 mi Variable 3.5 mph - N/A   Unknown
9:00 AM 58 °F 52 °F 74% 29.84 in 6 mi SSE 3.5 mph - -   Mist
9:20 AM 59.0 °F 51.8 °F 77% 29.83 in 4.3 mi SE 4.6 mph - N/A   Unknown
9:50 AM 59.0 °F 50.0 °F 72% 29.83 in 4.3 mi ESE 4.6 mph - N/A   Unknown
10:20 AM 59.0 °F 50.0 °F 72% 29.83 in 4.3 mi East 3.5 mph - N/A   Unknown
10:50 AM 59.0 °F 50.0 °F 72% 29.83 in 4.3 mi ESE 4.6 mph - N/A   Unknown
11:20 AM 60.8 °F 50.0 °F 68% 29.83 in 4.3 mi SE 4.6 mph - N/A   Unknown
11:50 AM 60.8 °F 50.0 °F 68% 29.83 in 4.3 mi SSE 4.6 mph - N/A   Unknown
12:20 PM 64.4 °F 50.0 °F 59% 29.80 in 5.6 mi SSE 4.6 mph - N/A   Unknown
12:50 PM 64.4 °F 50.0 °F 59% 29.80 in 5.6 mi SSE 5.8 mph - N/A   Unknown
1:20 PM 64.4 °F 48.2 °F 56% 29.80 in 5.6 mi SE 8.1 mph - N/A   Unknown
1:50 PM 62.6 °F 48.2 °F 59% 29.80 in 6.2 mi SSE 4.6 mph - N/A   Mostly Cloudy
2:20 PM 64.4 °F 50.0 °F 59% 29.80 in 6.2 mi ESE 4.6 mph - N/A   Mostly Cloudy
2:50 PM 66.2 °F 50.0 °F 56% 29.77 in 6.2 mi East 5.8 mph - N/A   Mostly Cloudy
3:00 PM 67 °F 49 °F 43% 29.79 in 6 mi East 5.8 mph - -   Partly Cloudy
3:20 PM 68.0 °F 48.2 °F 49% 29.77 in 6.2 mi East 9.2 mph - N/A   Scattered Clouds
3:50 PM 68.0 °F 48.2 °F 49% 29.74 in 6.2 mi East 8.1 mph - N/A   Mostly Cloudy
4:20 PM 71.6 °F 46.4 °F 41% 29.74 in 6.2 mi ESE 9.2 mph - N/A   Mostly Cloudy
4:50 PM 69.8 °F 48.2 °F 46% 29.74 in 6.2 mi ESE 8.1 mph - N/A   Mostly Cloudy
5:20 PM 68.0 °F 48.2 °F 49% 29.74 in 6.2 mi East 5.8 mph - N/A   Mostly Cloudy
5:50 PM 68.0 °F 48.2 °F 49% 29.74 in 6.2 mi East 4.6 mph - N/A   Mostly Cloudy
6:20 PM 69.8 °F 46.4 °F 43% 29.74 in 6.2 mi ENE 5.8 mph - N/A   Mostly Cloudy
6:50 PM 68.0 °F 46.4 °F 46% 29.74 in 6.2 mi East 4.6 mph - N/A   Mostly Cloudy
7:20 PM 69.8 °F 44.6 °F 40% 29.74 in 6.2 mi Variable 2.3 mph - N/A   Mostly Cloudy
7:50 PM 62.6 °F 48.2 °F 59% 29.74 in 6.2 mi SSW 9.2 mph - N/A   Mostly Cloudy
8:20 PM 60.8 °F 51.8 °F 72% 29.77 in 3.7 mi WSW 6.9 mph - N/A Rain Light Rain Showers
8:50 PM 59.0 °F 51.8 °F 77% 29.77 in 3.7 mi West 8.1 mph - N/A Rain Light Rain Showers
9:00 PM 58 °F 52 °F 76% 29.78 in 4 mi West 8.1 mph - - Rain Light Rain Showers
9:20 PM 57.2 °F 53.6 °F 88% 29.77 in 3.7 mi West 4.6 mph - N/A Rain Light Rain Showers
9:50 PM 59.0 °F 57.2 °F 94% 29.77 in 3.7 mi North 3.5 mph - N/A Rain Light Rain Showers
10:20 PM 60.8 °F 57.2 °F 88% 29.77 in 3.7 mi NW 4.6 mph - N/A   Mostly Cloudy
10:50 PM 60.8 °F 57.2 °F 88% 29.74 in 3.7 mi NNW 5.8 mph - N/A   Mostly Cloudy
11:20 PM 60.8 °F 57.2 °F 88% 29.74 in 3.7 mi North 3.5 mph - N/A   Mostly Cloudy
11:50 PM 60.8 °F 57.2 °F 88% 29.74 in 4.3 mi NNE 3.5 mph - N/A   Mostly Cloudy